Location: Rometta
(44.2000°N, 10.0500°E)
Time: 21:44:44
(UTC+00:00)

ISS - Pass Details

Date: 20 January 2021
Orbit: 417 x 422 km, 51.6° (Epoch: 04 March)

Event Time Altitude Azimuth Distance (km) Brightness Sun altitude
Rises 17:36:47 0° 227° (SW) 2,361 1.2 -14.8°
Reaches altitude 10° 17:38:54 10° 223° (SW) 1,501 -0.1 -15.1°
Maximum altitude 17:42:13 57° 144° (SE) 504 -3.6 -15.7°
Enters shadow 17:43:12 38° 87° (E) 659 -3.3 -15.9°
